Location: Angwan Shehu
(11.2514°N, 7.4613°E)
Time: 16:35:25
(UTC+00:00)

Courier 1B - Visible Passes

Search period start: 11 April 2021 00:00
Search period end: 21 April 2021 00:00
Orbit: 963 x 1209 km, 28.3° (Epoch: 11 April)

Date Brightness Start Highest point End Pass type
(mag) Time Alt. Az. Time Alt. Az. Time Alt. Az.
11 Apr 9.5 17:53:45 10° NW 17:58:22 19° N 18:03:09 10° NE visible
11 Apr 8.8 19:47:37 10° NW 19:53:47 31° NNE 19:53:47 31° NNE visible
12 Apr 9.1 18:54:03 10° NW 18:59:41 26° NNE 19:03:20 18° NE visible
12 Apr 9.5 20:47:26 10° NW 20:50:13 25° NW 20:50:13 25° NW visible
13 Apr 9.3 18:00:28 10° NW 18:05:31 21° NNE 18:10:47 10° ENE visible
13 Apr 8.4 19:53:49 10° NW 19:59:47 45° N 19:59:47 45° N visible
14 Apr 8.6 19:00:17 10° NW 19:06:33 36° NNE 19:09:23 27° ENE visible
14 Apr 9.6 20:53:51 10° WNW 20:56:16 24° WNW 20:56:16 24° WNW visible
15 Apr 8.9 18:06:47 10° NW 18:12:31 28° NNE 18:18:30 10° ENE visible
15 Apr 8.0 20:00:07 10° WNW 20:05:53 61° NNW 20:05:53 61° NNW visible
16 Apr 7.9 19:06:30 10° NW 19:13:13 56° NNE 19:15:33 40° E visible
16 Apr 9.8 21:00:39 10° WNW 21:02:27 19° W 21:02:27 19° W visible
17 Apr 8.3 18:12:58 10° NW 18:19:17 42° NNE 18:25:14 13° E visible
17 Apr 8.2 20:06:41 10° WNW 20:12:08 54° W 20:12:08 54° W visible
18 Apr 7.6 19:12:55 10° WNW 19:19:44 88° SSW 19:21:51 50° ESE visible
18 Apr 10.2 21:08:08 10° W 21:08:45 12° W 21:08:45 12° W visible
19 Apr 7.7 18:19:14 10° WNW 18:25:53 69° NNE 18:31:35 16° ESE visible
19 Apr 8.9 20:13:47 10° W 20:18:30 33° WSW 20:18:30 33° WSW visible
20 Apr 8.1 19:19:41 10° WNW 19:26:11 50° SSW 19:28:16 39° SSE visible
